KC2YYF Weather Reports


Display with metric or nautical units.
time (UTC)temp
F
wind
direction
speed
MPH
gust
MPH
rain 1hr
in
rain 24hr
in
rain mn
in
humidity
%
barometer
mb
20260506090042 62 322 4.0 15.0 0.00 0.00 0.00 71 1008.2
20260506084600 62 257 2.0 7.0 0.00 0.00 0.00 69 1008.2
20260506083041 62 281 2.0 8.0 0.00 0.00 0.00 67 1008.4
20260506081544 63 0 0.0 5.0 0.00 0.00 0.00 65 1008.5
20260506073047 64 15 2.0 12.0 0.00 0.00 0.00 62 1008.6
20260506071541 64 51 3.0 10.0 0.00 0.00 0.00 62 1008.7
20260506061541 65 19 1.0 10.0 0.00 0.00 0.00 60 1009.2
20260506044631 67 269 2.0 11.0 0.00 0.00 0.00 55 1009.7
20260506043036 67 311 3.0 8.0 0.00 0.00 0.00 53 1009.6
20260506041556 68 292 2.0 12.0 0.00 0.00 0.00 52 1009.5
20260506040043 68 300 3.0 9.0 0.00 0.00 0.00 51 1009.6
20260506034610 68 296 3.0 10.0 0.00 0.00 0.00 50 1009.5
20260506033038 69 325 4.0 13.0 0.00 0.00 0.00 49 1009.3
20260506031535 69 319 3.0 14.0 0.00 0.00 0.00 50 1009.2
20260506030042 69 102 3.0 12.0 0.00 0.00 0.00 50 1009.4
20260506024541 69 0 3.0 11.0 0.00 0.00 0.00 49 1009.4
20260506023101 69 308 1.0 15.0 0.00 0.00 0.00 48 1009.6
20260506021536 70 29 5.0 13.0 0.00 0.00 0.00 47 1009.5
20260506020045 70 292 3.0 11.0 0.00 0.00 0.00 45 1009.3
20260506014542 71 309 2.0 9.0 0.00 0.00 0.00 43 1009.2
20260506013042 72 302 3.0 13.0 0.00 0.00 0.00 42 1009.0
20260506011549 72 332 5.0 12.0 0.00 0.00 0.00 41 1009.0
20260506010042 72 360 4.0 17.0 0.00 0.00 0.00 42 1008.7
20260506004600 72 329 6.0 14.0 0.00 0.00 0.00 42 1008.5
20260506003047 72 285 3.0 13.0 0.00 0.00 0.00 42 1008.5
20260506001540 72 297 4.0 14.0 0.00 0.00 0.00 43 1008.3
20260506000047 72 0 2.0 14.0 0.00 0.00 0.00 42 1008.2
20260505234601 73 5 3.0 13.0 0.00 0.00 0.00 42 1008.2
20260505233042 73 292 4.0 12.0 0.00 0.00 0.00 41 1008.1
20260505231541 74 332 5.0 12.0 0.00 0.00 0.00 40 1007.9
20260505230043 74 279 4.0 17.0 0.00 0.00 0.00 39 1007.8
20260505224543 74 338 4.0 13.0 0.00 0.00 0.00 39 1007.7
20260505223042 75 196 3.0 14.0 0.00 0.00 0.00 39 1007.6
20260505221541 75 47 3.0 15.0 0.00 0.00 0.00 40 1007.4
20260505220055 75 27 5.0 14.0 0.00 0.00 0.00 38 1007.3
20260505214543 76 26 4.0 15.0 0.00 0.00 0.00 37 1007.1
20260505213043 77 268 4.0 18.0 0.00 0.00 0.00 36 1007.0
20260505211545 77 331 1.0 10.0 0.00 0.00 0.00 32 1007.0
20260505210040 78 296 6.0 13.0 0.00 0.00 0.00 30 1006.8
20260505204537 78 342 3.0 15.0 0.00 0.00 0.00 30 1006.8
20260505203044 80 304 4.0 19.0 0.00 0.00 0.00 29 1006.6
20260505201538 80 299 7.0 19.0 0.00 0.00 0.00 29 1006.7
20260505200041 79 265 6.0 15.0 0.00 0.00 0.00 32 1006.9
20260505194545 80 273 3.0 14.0 0.00 0.00 0.00 31 1007.2
20260505193046 80 50 8.0 22.0 0.00 0.00 0.00 32 1007.3
20260505191552 80 348 7.0 26.0 0.00 0.00 0.00 31 1007.4
20260505190038 80 300 4.0 16.0 0.00 0.00 0.00 34 1007.6
20260505184544 80 26 5.0 25.0 0.00 0.00 0.00 36 1007.8
20260505183041 78 32 6.0 15.0 0.00 0.00 0.00 38 1008.0
20260505181540 79 340 6.0 16.0 0.00 0.00 0.00 35 1008.3
20260505180050 79 265 5.0 19.0 0.00 0.00 0.00 39 1008.3
20260505174542 78 299 8.0 21.0 0.00 0.00 0.00 36 1008.6
20260505173045 78 294 8.0 21.0 0.00 0.00 0.00 39 1008.7
20260505171541 78 336 6.0 31.0 0.00 0.00 0.00 41 1008.4
20260505170055 78 248 7.0 20.0 0.00 0.00 0.00 42 1008.5
20260505164539 77 332 4.0 16.0 0.00 0.00 0.00 42 1008.5
20260505163040 77 279 6.0 17.0 0.00 0.00 0.00 43 1008.7
20260505161548 75 299 6.0 19.0 0.00 0.00 0.00 45 1009.0
20260505153052 73 312 5.0 15.0 0.00 0.00 0.00 46 1009.6
20260505151542 74 284 5.0 20.0 0.00 0.00 0.00 48 1009.6
20260505124544 66 322 3.0 10.0 0.00 0.00 0.00 59 1009.9
20260505123101 65 318 3.0 7.0 0.00 0.00 0.00 61 1009.8
20260505121542 64 0 2.0 10.0 0.00 0.00 0.00 60 1009.8
20260505120045 63 59 2.0 9.0 0.00 0.00 0.00 64 1009.6
20260505114603 61 314 1.0 8.0 0.00 0.00 0.00 68 1009.6
20260505113039 58 47 2.0 9.0 0.00 0.00 0.00 69 1009.6
20260505111556 57 78 2.0 10.0 0.00 0.00 0.00 69 1009.6
20260505101536 56 275 2.0 11.0 0.00 0.00 0.00 64 1009.6
20260505100045 56 349 4.0 11.0 0.00 0.00 0.00 64 1009.8
20260505094546 55 311 3.0 15.0 0.00 0.00 0.00 65 1009.5
20260505093040 55 268 2.0 9.0 0.00 0.00 0.00 64 1009.3
20260505091540 55 328 1.0 5.0 0.00 0.00 0.00 64 1009.1